Regional Weather Roundup
Issued by NWS

Home | Current Version | Previous Version | Graphics & Text | Print | Product List | Glossary On
Versions: 1 2 3 4 5 6 7 8 9 10 11 12 13 14 15 16 17 18 19 20 21 22 23 24 25 26 27 28 29 30 31 32 33 34 35 36 37 38 39 40 41 42 43 44 45 46 47 48 49 50
000
ASUS43 KDMX 301707
RWRIA

WEATHER ROUNDUP FOR IOWA
NATIONAL WEATHER SERVICE DES MOINES IA
1200 PM CDT TUE JUN 30 2015

NOTE: "FAIR" INDICATES FEW OR NO CLOUDS BELOW 12,000 FEET WITH NO
SIGNIFICANT WEATHER AND/OR OBSTRUCTIONS TO VISIBILITY.

* - THESE STATIONS ARE NOT NWS STATIONS...THUS NOT UNDER NWS
QUALITY CONTROL.  THEY ALSO DO NOT REPORT WEATHER SUCH
AS PRECIPITATION OR FOG.

IAZ001>003-012>014-020>022-031>034-043>046-301800-
   NORTHWEST IOWA

CITY           SKY/WX    TMP DP  RH WIND       PRES   REMARKS
CARROLL *      SUNNY     73  63  68 N5        29.93S
CHEROKEE *     CLOUDY    73  68  83 CALM      29.94F
DENISON *      SUNNY     73  66  78 CALM      29.92F
LE MARS *      SUNNY     72  66  83 VRB6      29.97R
ORANGE CITY *  SUNNY     72  64  78 W6        29.96R
SHELDON *      SUNNY     73  73 100 CALM      29.94S
SIOUX CITY     CLOUDY    72  66  81 W9        29.95F HAZE
SPENCER        PTSUNNY   75  64  68 N3        29.94F
STORM LAKE *   SUNNY     72  64  78 CALM      29.95F
$$

IAZ055>058-069>071-079>083-090>094-301800-
   SOUTHWEST IOWA

CITY           SKY/WX    TMP DP  RH WIND       PRES   REMARKS
ATLANTIC *     SUNNY     73  66  78 CALM      29.94R
AUDUBON *      SUNNY     75  68  78 NW5       29.95R
CLARINDA *     SUNNY     79  72  78 NW3       29.95S HX  82
COUNCIL BLFS * MOSUNNY   73  68  83 N8        29.96R
CRESTON *      SUNNY     75  64  69 NW5       29.94R
HARLAN  *      SUNNY     73  72  94 CALM      29.98R
LAMONI         PTSUNNY   78  66  66 NW6       29.92S HX  80
RED OAK *      MOSUNNY   79  66  65 NW6       29.94R HX  81
SHENANDOAH *   MOSUNNY   79  66  65 CALM      29.94R HX  81
$$

IAZ047>049-059>061-072>074-084-301800-
   CENTRAL IOWA

CITY           SKY/WX    TMP DP  RH WIND       PRES   REMARKS
AMES           SUNNY     78  66  66 N6        29.90F HX  80
ANKENY *       SUNNY     77  68  73 NW6       29.90S
CHARITON *     SUNNY     75  68  78 N6        29.91S
DES MOINES     CLOUDY    78  65  63 NW3       29.89F HX  80
GRINNELL*      SUNNY     75  68  78 NW7       29.90S
KNOXVILLE *    SUNNY     75  66  73 NW7       29.89S
MARSHALLTOWN   SUNNY     77  67  71 NW3       29.88F
PELLA *        SUNNY     77  72  83 W7        29.90S
PERRY *          N/A     73  66  78 NW5       29.92S
$$

IAZ004>006-015-016-023>025-035-036-301800-
   NORTH CENTRAL IOWA

CITY           SKY/WX    TMP DP  RH WIND       PRES   REMARKS
ALGONA *       SUNNY     73  64  73 VRB7      29.93S
CLARION *      SUNNY     75  64  69 N8        29.92S
ESTHERVILLE    MOSUNNY   72  64  76 VRB5      29.94R
FORT DODGE *   SUNNY     75  64  69 NW3       29.93S
MASON CITY     SUNNY     77  64  64 NE9       29.93S
FOREST CITY *  MOSUNNY   72  64  78 N8        29.93R
IOWA FALLS *     N/A     77  64  65 NW7       29.92R
$$

IAZ007>011-017>019-026>030-037>042-050>054-066-301800-
   NORTHEAST IOWA

CITY           SKY/WX    TMP DP  RH WIND       PRES   REMARKS
CEDAR RAPIDS   SUNNY     77  66  68 NW8       29.87S
CHARLES CITY * MOSUNNY   75  66  73 N7        29.91S
CLINTON *      SUNNY     73  63  68 N8        29.88S
DECORAH *        N/A    N/A N/A N/A MISG        N/A
DUBUQUE        MOSUNNY   73  63  70 N12       29.87F
MONTICELLO *   SUNNY     75  75 100 N8        29.87R
OELWEIN *      MOSUNNY   75  64  69 N8        29.90S
WATERLOO       SUNNY     78  63  59 N8        29.88S HX  80
$$

IAZ064-065-067-068-078-301800-
   EAST CENTRAL IOWA

CITY           SKY/WX    TMP DP  RH WIND       PRES   REMARKS
DAVENPORT      SUNNY     76  63  64 VRB7      29.86F
IOWA CITY      SUNNY     78  64  61 NW8       29.87F HX  80
MT. PLEASANT * MOSUNNY   79  64  61 NW7       29.87S HX  81
MUSCATINE *    SUNNY     79  64  61 N6        29.86S HX  81
QUAD CITIES    SUNNY     78  61  55 N7        29.85S HX  80
$$

IAZ062-063-075>077-085>089-095>099-301800-
   SOUTHEAST IOWA

CITY           SKY/WX    TMP DP  RH WIND       PRES   REMARKS
BURLINGTON     MOSUNNY   78  69  73 NW6       29.86S HX  80
FAIRFIELD *    SUNNY     75  66  73 NW9       29.88S
FORT MADISON * MOSUNNY   75  70  83 NW6       29.87F
KEOKUK *       SUNNY     77  68  73 NW8       29.86F
OSKALOOSA *      N/A     75  68  78 NW6       29.89S
CENTERVILLE *  SUNNY     75  68  78 NW8       29.92S
OTTUMWA        SUNNY     76  69  79 NW9       29.87S
WASHINGTON *   SUNNY     77  68  73 VRB7      29.88S
$$

ABBREVIATIONS USED IN REMARKS
   TC - TEMPERATURES IN CELSIUS
  WCI - WIND CHILL INDEX
   HX - HEAT INDEX
  VSB - VISIBILITY
$$




USA.gov is the U.S. government's official web portal to all federal, state and local government web resources and services.